[[{"header":{"parameterUnit":"m.s-1","parameterCategory":1,"la1":30.2991,"la2":30.254,"lo1":-89.0895,"lo2":-89.0444,"dy":0.0017,"dx":0.0017,"nx":28,"ny":28,"refTime":"2025-08-24T03:00:00:Z","depth":0,"parameterNumber":2,"parameterNumberName":"U-component_of_WINDS"},"data":[0,0,0,0,0,0,0,0,0,0,0,0,0,0,0,0,0,0,0,0,0,0,0,0,0,0,0,0,0,0,0,0,0,0,0,0,0,0,0,0,0,0,0,0,0,0,0,0,0,0,0,0,0,0,0,0,0,0,-2.9394,-2.9393,0,-2.9329,-2.9328,-2.9327,-2.9187,-2.9184,-2.9181,-2.9178,-2.9116,-2.9117,-2.9118,0,0,0,0,0,0,0,0,0,0,0,0,0,-2.9402,-2.9402,-2.9394,-2.9393,-2.9392,-2.9329,-2.9328,-2.9327,-2.9187,-2.9184,-2.918,-2.9177,-2.9115,-2.9116,-2.9118,0,0,0,0,0,0,0,0,0,0,0,0,0,-2.9374,-2.9402,-2.9394,-2.9315,-2.9307,-2.9329,-2.9328,-2.9327,-2.9188,-2.9184,-2.9179,-2.9175,-2.9115,-2.9116,-2.9118,-2.9213,0,0,-2.9122,-2.9123,0,0,0,0,0,0,0,0,-2.9376,-2.9374,-2.9327,-2.932,-2.9311,-2.9261,-2.9307,-2.9289,-2.9189,-2.9233,-2.9178,-2.9173,-2.9168,-2.9165,-2.9162,-2.921,-2.9207,-2.9122,-2.9123,-2.9124,-2.9124,0,0,0,0,0,0,0,-2.9378,-2.9376,-2.9368,-2.9327,-2.9317,-2.9284,-2.9275,-2.9303,-2.9226,-2.9229,-2.9219,-2.9213,-2.9163,-2.9161,-2.9159,-2.9206,-2.9122,-2.9124,-2.9125,-2.9125,-2.933,-2.9335,0,0,0,0,0,0,-2.9391,-2.9378,-2.937,-2.9366,-2.9333,-2.9287,-2.9277,-2.9282,-2.9225,-2.9212,-2.9216,-2.9206,-2.916,-2.9158,-2.9157,-2.9265,-2.9124,-2.9125,-2.9126,-2.9326,-2.9331,-2.9336,0,0,0,0,0,0,-2.9391,-2.9391,-2.9373,-2.9369,-2.9364,-2.9292,-2.9298,-2.9283,-2.9281,-2.9215,-2.9201,-2.9229,-2.9157,-2.9155,-2.92,-2.9261,-2.9126,-2.9127,-2.932,-2.9327,-2.9334,-2.9482,0,0,0,0,0,0,-2.9392,-2.9392,-2.9426,-2.9371,-2.9365,-2.9416,-2.9301,-2.9285,-2.9283,-2.9269,-2.9223,-2.9211,-2.9153,-2.9198,-2.9201,-2.926,-2.9129,-2.9315,-2.9324,-2.9332,-2.9471,-2.9493,-2.9511,0,0,0,0,0,-2.9393,-2.9471,-2.9429,-2.9428,-2.9406,-2.942,-2.9416,-2.9347,-2.9289,-2.9323,-2.9281,-2.9212,-2.9254,-2.9204,-2.9206,-2.9267,-2.9311,-2.9321,-2.9331,-2.9462,-2.9488,-2.9511,0,0,0,0,0,0,-2.9536,-2.9462,-2.9414,-2.9477,-2.9456,-2.9396,-2.9437,-2.9377,-2.9373,-2.9361,-2.9277,-2.9267,-2.9325,-2.93,-2.9246,-2.9356,-2.9271,-2.9282,-2.937,-2.9395,-2.9414,-2.9419,-2.913,0,0,0,0,0,-2.9575,-2.9591,-2.9526,-2.9587,-2.9579,-2.9511,-2.9514,-2.9463,-2.9438,-2.9428,-2.9389,-2.9369,-2.9377,-2.9385,-2.9389,-2.9467,-2.9456,-2.951,-2.953,-2.9547,-2.9557,-2.9598,-2.9622,-2.937,-2.937,-2.937,0,0,-2.9655,-2.9617,-2.9632,-2.9615,-2.9592,-2.9612,-2.9504,-2.9529,-2.9543,-2.9432,-2.9472,-2.9444,-2.9416,-2.9479,-2.9504,-2.946,-2.9625,-2.956,-2.9574,-2.9575,-2.9611,-2.9635,-2.9657,-2.9377,-2.9376,-2.9374,0,0,-2.9812,-2.9784,-2.9832,-2.9812,-2.9779,-2.9733,-2.9745,-2.9695,-2.9671,-2.971,-2.9628,-2.9645,-2.966,-2.9644,-2.9638,-2.9791,-2.9728,-2.9795,-2.99,-2.9941,-2.996,-2.9978,-3.0033,-3.0054,-2.9805,-2.9806,-2.9806,0,-2.9916,-2.9941,-2.9865,-2.9896,-2.9891,-2.9791,-2.9841,-2.9825,-2.9797,-2.9797,-2.9747,-2.9766,-2.974,-2.9798,-2.9835,-2.9833,-2.9846,-2.9799,-2.9963,-2.998,-2.9995,-3.0047,-3.0068,-2.9814,-2.9813,-2.9812,-2.9812,0,-3.0071,-3.009,-3.0134,-3.0107,-3.0108,-3.0148,-3.008,-3.009,-3.004,-3.0,-3.0042,-3.0008,-3.0003,-3.0014,-2.9965,-3.0066,-3.0039,-2.9978,-2.9891,-3.0028,-3.0076,-3.0095,-2.9826,-2.9823,-2.9821,-2.9819,0,0,-3.0314,-3.0246,-3.0263,-3.0251,-3.0208,-3.0222,-3.0259,-3.0254,-3.0265,-3.0249,-3.0278,-3.0295,-3.0239,-3.0232,-3.0181,-3.0217,-3.0342,-3.0151,-3.0149,-3.0188,-3.0452,-3.0498,-3.0522,-3.03,-3.0303,-3.0306,-3.0454,0,-3.0461,-3.0517,-3.0452,-3.0523,-3.0541,-3.0447,-3.048,-3.0458,-3.0423,-3.0434,-3.0395,-3.0408,-3.0332,-3.0328,-3.0359,-3.032,-3.0393,-3.0308,-3.0328,-3.0329,-3.0337,-3.0546,-3.0595,-3.0736,-3.0472,-3.0475,-3.0477,0,-3.0638,-3.063,-3.0704,-3.0658,-3.0662,-3.0692,-3.0683,-3.0695,-3.0669,-3.0641,-3.0635,-3.0573,-3.0608,-3.0524,-3.0571,-3.0515,-3.052,-3.0502,-3.0506,-3.0504,-3.0412,-3.0551,-3.0779,-3.0801,-3.0506,-3.0503,-3.0501,0,-3.0809,-3.0817,-3.0861,-3.0854,-3.0801,-3.0824,-3.0804,-3.0774,-3.0776,-3.0769,-3.0769,-3.0767,-3.0766,-3.0767,-3.0707,-3.0651,-3.0763,-3.0673,-3.0742,-3.0743,-3.0769,-3.0768,-3.1001,-3.0772,-3.0772,-3.0772,-3.0771,0,-3.0979,-3.1028,-3.0937,-3.0965,-3.1018,-3.0943,-3.0997,-3.0967,-3.0942,-3.0964,-3.0884,-3.0906,-3.0826,-3.0841,-3.0795,-3.0842,-3.0842,-3.0822,-3.0809,-3.0828,-3.0831,-3.083,-3.0819,-3.0777,-3.0776,-3.0775,-3.0774,0,-3.1178,-3.1119,-3.1162,-3.1109,-3.1097,-3.1138,-3.1093,-3.1118,-3.1078,-3.1107,-3.1109,-3.1047,-3.106,-3.1001,-3.1004,-3.0973,-3.1044,-3.1015,-3.1053,-3.1043,-3.1115,-3.1109,-3.1355,-3.1384,-3.1138,-3.114,-3.1142,0,-3.129,-3.1325,-3.1276,-3.1284,-3.1268,-3.1282,-3.1283,-3.1212,-3.1217,-3.1192,-3.122,-3.1227,-3.1228,-3.1254,-3.121,-3.1213,-3.1183,-3.1269,-3.1183,-3.1202,-3.1184,-3.1183,-3.1187,-3.1287,-3.129,-3.1292,-3.1294,0,-3.1495,-3.1465,-3.1469,-3.1464,-3.1468,-3.1461,-3.1449,-3.1461,-3.1384,-3.1394,-3.1406,-3.1407,-3.1411,-3.1419,-3.1413,-3.1393,-3.1332,-3.1322,-3.1338,-3.1358,-3.1379,-3.1369,-3.1101,-3.1317,-3.1314,-3.1313,-3.1311,-3.1311,-3.1654,-3.1681,-3.1651,-3.1659,-3.1643,-3.1634,-3.1654,-3.1617,-3.1625,-3.1622,-3.158,-3.1601,-3.1576,-3.1561,-3.1548,-3.1565,-3.1524,-3.1547,-3.1553,-3.156,-3.1573,-3.1377,-3.1564,-3.1563,-3.1562,-3.1562,-3.1561,0,-3.1855,-3.1831,-3.184,-3.1825,-3.1832,-3.1773,-3.1757,-3.1768,-3.1786,-3.1768,-3.1772,-3.1787,-3.1795,-3.1752,-3.1755,-3.1776,-3.1749,-3.178,-3.1777,-3.1774,-3.1608,-3.1594,-3.1802,-3.1802,-3.1802,-3.1802,-3.1802,-3.1802,-3.196,-3.2004,-3.1971,-3.2006,-3.1982,-3.2001,-3.1997,-3.1989,-3.1975,-3.1995,-3.2001,-3.1973,-3.1945,-3.1946,-3.1951,-3.1939,-3.1944,-3.1984,-3.1963,-3.1809,-3.1785,-3.1763,-3.1749,-3.1986,-3.1986,-3.2126,-3.2128,-3.2129]},{"header":{"parameterUnit":"m.s-1","parameterCategory":1,"la1":30.2991,"la2":30.254,"lo1":-89.0895,"lo2":-89.0444,"dy":0.0017,"dx":0.0017,"nx":28,"ny":28,"refTime":"2025-08-24T03:00:00:Z","depth":0,"parameterNumber":3,"parameterNumberName":"V-component_of_WINDS"},"data":[0,0,0,0,0,0,0,0,0,0,0,0,0,0,0,0,0,0,0,0,0,0,0,0,0,0,0,0,0,0,0,0,0,0,0,0,0,0,0,0,0,0,0,0,0,0,0,0,0,0,0,0,0,0,0,0,0,0,1.4862,1.4862,0,1.488,1.488,1.488,1.4903,1.4904,1.4904,1.4904,1.4921,1.4921,1.4921,0,0,0,0,0,0,0,0,0,0,0,0,0,1.4847,1.4848,1.4862,1.4862,1.4863,1.488,1.488,1.488,1.4903,1.4904,1.4904,1.4905,1.4921,1.4921,1.4921,0,0,0,0,0,0,0,0,0,0,0,0,0,1.4858,1.4848,1.4862,1.4876,1.4878,1.488,1.488,1.488,1.4903,1.4904,1.4904,1.4905,1.4921,1.4921,1.4921,1.491,0,0,1.4921,1.4921,0,0,0,0,0,0,0,0,1.4858,1.4859,1.4874,1.4875,1.4877,1.489,1.4881,1.489,1.4903,1.4893,1.4904,1.4905,1.491,1.4911,1.4913,1.4911,1.4912,1.4921,1.4921,1.4921,1.4922,0,0,0,0,0,0,0,1.4857,1.4858,1.4869,1.4874,1.4876,1.4881,1.4883,1.4883,1.4898,1.4894,1.4896,1.4898,1.4911,1.4913,1.4914,1.4912,1.4921,1.4921,1.4922,1.4922,1.4902,1.4902,0,0,0,0,0,0,1.4854,1.4857,1.4868,1.487,1.4868,1.4881,1.4883,1.4885,1.4898,1.4901,1.4897,1.4899,1.4912,1.4913,1.4914,1.4902,1.4921,1.4922,1.4922,1.4903,1.4902,1.4901,0,0,0,0,0,0,1.4854,1.4855,1.4868,1.4864,1.4866,1.4881,1.4882,1.4885,1.4887,1.4901,1.4903,1.4896,1.4913,1.4914,1.4911,1.4903,1.4922,1.4922,1.4903,1.4903,1.4902,1.4878,0,0,0,0,0,0,1.4853,1.4855,1.4851,1.4864,1.4866,1.4865,1.4882,1.4885,1.4887,1.489,1.4901,1.4903,1.4913,1.4911,1.4911,1.4904,1.4922,1.4904,1.4903,1.4902,1.488,1.4876,1.4874,0,0,0,0,0,1.4853,1.4843,1.485,1.4852,1.4862,1.4864,1.4865,1.4878,1.4887,1.4883,1.4892,1.4903,1.4904,1.491,1.4911,1.4903,1.4905,1.4903,1.4902,1.4881,1.4877,1.4874,0,0,0,0,0,0,1.4828,1.4845,1.4853,1.4848,1.4854,1.4868,1.4863,1.4874,1.4877,1.4879,1.4895,1.4897,1.4892,1.4898,1.4904,1.4894,1.4906,1.4905,1.489,1.4886,1.4883,1.4881,1.4922,0,0,0,0,0,1.4822,1.4823,1.4838,1.4831,1.4834,1.4848,1.485,1.4859,1.4866,1.4869,1.4878,1.4884,1.4886,1.4887,1.4889,1.4881,1.4884,1.4876,1.4873,1.4871,1.4869,1.4865,1.4862,1.4897,1.4897,1.4897,0,0,1.4809,1.4819,1.4818,1.4826,1.4833,1.4833,1.485,1.485,1.485,1.4869,1.4866,1.4873,1.4881,1.4876,1.4874,1.488,1.486,1.4869,1.4867,1.4867,1.4863,1.486,1.4857,1.4896,1.4896,1.4896,0,0,1.4786,1.4794,1.4789,1.4795,1.4805,1.4814,1.4813,1.4826,1.4831,1.4829,1.4844,1.4844,1.4847,1.4852,1.4855,1.4835,1.4845,1.4836,1.482,1.4816,1.4813,1.4811,1.4803,1.48,1.4834,1.4834,1.4834,0,1.4768,1.477,1.4785,1.4784,1.4787,1.4805,1.4801,1.4806,1.4815,1.4817,1.4825,1.4829,1.4836,1.4832,1.4827,1.4829,1.4828,1.4834,1.4812,1.481,1.4808,1.48,1.4798,1.4833,1.4833,1.4833,1.4833,0,1.4748,1.4748,1.4744,1.4753,1.4756,1.4753,1.4768,1.4769,1.4778,1.4787,1.4785,1.4794,1.4799,1.4799,1.4808,1.4796,1.48,1.481,1.4822,1.4803,1.4796,1.4794,1.4831,1.4832,1.4832,1.4832,0,0,1.4707,1.4727,1.4724,1.4729,1.4742,1.4742,1.474,1.4746,1.4746,1.4753,1.4751,1.4754,1.4763,1.4767,1.4777,1.4773,1.4756,1.4784,1.4784,1.4777,1.4743,1.4734,1.473,1.4764,1.4763,1.4763,1.4742,0,1.4685,1.4683,1.4697,1.4691,1.4692,1.471,1.4708,1.4716,1.4724,1.4726,1.4735,1.4737,1.475,1.4752,1.475,1.4759,1.4749,1.4761,1.4761,1.4761,1.4757,1.4727,1.4718,1.4697,1.4739,1.4739,1.4738,0,1.4658,1.4664,1.4658,1.4672,1.4673,1.4671,1.4677,1.4679,1.4688,1.4694,1.4699,1.4711,1.4709,1.4723,1.4721,1.4728,1.473,1.4734,1.4734,1.4733,1.4747,1.4724,1.4691,1.4687,1.4734,1.4735,1.4735,0,1.4628,1.4635,1.4632,1.4636,1.4652,1.465,1.4656,1.4666,1.4668,1.4674,1.4676,1.4681,1.4683,1.4687,1.47,1.4709,1.4696,1.4711,1.4701,1.47,1.4696,1.4695,1.4661,1.4699,1.4699,1.4699,1.4699,0,1.4601,1.4596,1.4619,1.4616,1.4612,1.4629,1.4624,1.4632,1.4641,1.4641,1.4657,1.4657,1.4675,1.4676,1.4686,1.4683,1.4684,1.4689,1.4691,1.4686,1.4685,1.4686,1.4687,1.4698,1.4699,1.4699,1.4699,0,1.4565,1.458,1.4578,1.4594,1.4598,1.4594,1.4607,1.4606,1.4617,1.4616,1.4617,1.4633,1.4635,1.4649,1.4655,1.4662,1.4654,1.466,1.4651,1.4652,1.4641,1.4641,1.4604,1.46,1.4642,1.4642,1.4641,0,1.4546,1.4543,1.4559,1.456,1.4566,1.4568,1.4571,1.4589,1.4591,1.4602,1.4599,1.4603,1.4607,1.461,1.4622,1.4626,1.4631,1.4618,1.4632,1.4627,1.463,1.4629,1.4628,1.4615,1.4614,1.4614,1.4613,0,1.451,1.4518,1.4522,1.4528,1.4532,1.4538,1.4544,1.4545,1.4564,1.4565,1.4569,1.4572,1.4578,1.4582,1.4588,1.4595,1.4606,1.4609,1.4607,1.4601,1.4595,1.4597,1.4641,1.4609,1.461,1.461,1.461,1.461,1.4481,1.4479,1.449,1.4494,1.4502,1.4508,1.4507,1.4518,1.4522,1.4528,1.4539,1.454,1.455,1.456,1.4566,1.4567,1.4574,1.4571,1.457,1.4568,1.4565,1.4597,1.4569,1.4569,1.4569,1.4569,1.4569,0,1.4444,1.4453,1.4457,1.4466,1.4469,1.4482,1.4491,1.4492,1.4494,1.4502,1.4507,1.451,1.4514,1.4527,1.4532,1.453,1.4536,1.4531,1.453,1.4531,1.456,1.456,1.4526,1.4526,1.4526,1.4526,1.4526,1.4526,1.4426,1.4423,1.4433,1.4434,1.4443,1.4445,1.4449,1.4455,1.4461,1.4465,1.4469,1.4478,1.4488,1.4494,1.4498,1.4501,1.4502,1.4495,1.45,1.4525,1.4529,1.4533,1.4534,1.4495,1.4495,1.4471,1.4471,1.4471]}]]